Homer, AK

2:05 PM AKDT on April 29, 2017 (GMT -0800)
Homer

Weather History for PAHO - July, 2012

Change the Weather History Date:

Friday, July 13, 2012

  Actual Average Record
Temperature  
Mean Temperature 50 °F -  
Max Temperature 55 °F 60 °F 72 °F (2013)
Min Temperature 46 °F 47 °F 35 °F (1956)
Degree Days  
Heating Degree Days 14    
Moisture  
Dew Point 46 °F    
Average Humidity 84    
Maximum Humidity 93    
Minimum Humidity 69    
Precipitation  
Precipitation 0.00 in - - ()
Sea Level Pressure  
Sea Level Pressure 30.06 in    
Wind  
Wind Speed 4 mph (WSW)    
Max Wind Speed 15 mph    
Max Gust Speed -    
Visibility 10 miles    
Events      
Averages and records for this station are not official NWS values.
T = Trace of Precipitation, MM = Missing Value Source: NWS Daily Summary

Daily Weather History Graph

Daily Weather History Graph

Search for Another Location

Airport or City:

Trip Planner

Search our weather history database for the weather conditions in past years. The results will help you decide how hot, cold, wet, or windy it might be!

Date:

Astronomy

Jul. 13, 2012 Rise Set
Actual Time 5:10 AM AKDT 11:11 PM AKDT
Civil Twilight 3:53 AM AKDT 12:27 AM AKDT
Nautical Twilight Sun does not set Sun does not set
Astronomical Twilight Sun does not set Sun does not set
Moon 1:17 AM AKDT (7/13) 6:37 PM AKDT (7/13)
Length of Visible Light 20h 34m
Length of Day
18h 01m
Waning Crescent, 25% of the Moon is Illuminated
Jul 13
Waning Crescent
Jul 18
New
Jul 26
First Quarter
Aug 1
Full
Aug 9
Last Quarter

Hourly Weather History & Observations

Time (AKDT) Temp. Dew Point Humidity Pressure Visibility Wind Dir Wind Speed Gust Speed Precip Events Conditions
12:53 AM 48.0 °F 44.1 °F 86% 29.91 in 10.0 mi NE 4.6 mph - N/A   Overcast
1:53 AM 46.9 °F 44.1 °F 90% 29.93 in 10.0 mi Calm Calm - N/A   Overcast
2:53 AM 48.0 °F 44.1 °F 86% 29.94 in 10.0 mi Calm Calm - N/A   Overcast
3:53 AM 48.0 °F 44.1 °F 86% 29.96 in 10.0 mi Calm Calm - N/A   Overcast
4:53 AM 46.9 °F 45.0 °F 93% 29.97 in 10.0 mi WSW 5.8 mph - N/A   Overcast
5:53 AM 48.0 °F 44.1 °F 86% 29.98 in 10.0 mi Calm Calm - N/A   Overcast
6:53 AM 48.0 °F 45.0 °F 89% 30.00 in 10.0 mi Calm Calm - N/A   Overcast
7:06 AM 48.2 °F 46.4 °F 93% 30.00 in 10.0 mi Calm Calm - N/A   Overcast
7:53 AM 48.0 °F 46.0 °F 93% 30.02 in 10.0 mi SSW 4.6 mph - N/A   Overcast
8:53 AM 50.0 °F 46.0 °F 86% 30.03 in 10.0 mi South 3.5 mph - N/A   Overcast
9:00 AM 51.8 °F 46.4 °F 82% 30.03 in 10.0 mi Calm Calm - N/A   Overcast
9:29 AM 50.0 °F 46.4 °F 87% 30.03 in 10.0 mi WSW 4.6 mph - N/A   Overcast
9:49 AM 50.0 °F 46.4 °F 87% 30.04 in 10.0 mi West 4.6 mph - N/A   Overcast
9:53 AM 51.1 °F 46.0 °F 83% 30.04 in 10.0 mi West 4.6 mph - N/A   Overcast
10:53 AM 51.1 °F 46.0 °F 83% 30.06 in 10.0 mi WSW 6.9 mph - N/A   Overcast
11:53 AM 50.0 °F 46.9 °F 89% 30.07 in 10.0 mi SW 5.8 mph - N/A   Overcast
12:53 PM 51.1 °F 46.0 °F 83% 30.09 in 10.0 mi WSW 8.1 mph - N/A   Overcast
1:53 PM 52.0 °F 46.9 °F 83% 30.10 in 10.0 mi WSW 9.2 mph - N/A   Overcast
2:53 PM 52.0 °F 46.9 °F 83% 30.11 in 10.0 mi WSW 15.0 mph - N/A   Overcast
3:53 PM 52.0 °F 46.9 °F 83% 30.11 in 10.0 mi WSW 11.5 mph - N/A   Overcast
4:53 PM 52.0 °F 46.9 °F 83% 30.13 in 10.0 mi WSW 10.4 mph - N/A   Overcast
5:53 PM 52.0 °F 46.9 °F 83% 30.14 in 10.0 mi WSW 11.5 mph - N/A   Overcast
6:53 PM 54.0 °F 48.0 °F 80% 30.15 in 10.0 mi SW 6.9 mph - N/A   Mostly Cloudy
7:53 PM 55.0 °F 46.0 °F 72% 30.14 in 10.0 mi West 5.8 mph - N/A   Scattered Clouds
8:53 PM 55.0 °F 45.0 °F 69% 30.16 in 10.0 mi WSW 4.6 mph - N/A   Scattered Clouds
9:53 PM 53.1 °F 45.0 °F 74% 30.17 in 10.0 mi SW 4.6 mph - N/A   Overcast
10:53 PM 51.1 °F 46.0 °F 83% 30.19 in 10.0 mi West 4.6 mph - N/A   Mostly Cloudy
11:53 PM 50.0 °F 45.0 °F 83% 30.20 in 10.0 mi Calm Calm - N/A   Overcast